Tracking 17149 objects as of 22-May-2015
HD Live streaming from Space Station

SL-3 DEB

Track SL-3 DEB now!
10-day predictions
SL-3 DEB is classified as:


NORAD ID: 14928
Int'l Code: 1983-075F
Perigee: 520.0 km
Apogee: 565.0 km
Inclination: 97.8 °
Period: 95.3 minutes
Semi major axis: 6913 km
RCS: 0.0341 m2 (small)
Launch date: July 24, 1983
Source: Commonwealth of Independent States (former USSR) (CIS)

Note: This is SATELLITE DEBRIS
Your satellite tracking list
Your tracking list is empty





NASA's NSSDC Master Catalog

Two Line Element Set (TLE):
1 14928U 83075F   15142.30105569  .00002234  00000-0  13906-3 0  9992
2 14928 097.7890 262.0024 0032584 281.8653 137.3311 15.10282320706058

Source of the keplerian elements: AFSPC

N2YO: 402